• In India
  • List of Countries
  • For 7 days
  • Water Temperature
  • Satellite Maps
  • Weather Map
  • Weather Widgets
  • user-avatar
    Login

    Hourly Weather Graz

    Today, 19 July, Thursday

    Time Temperature Precipitation Wind Pressure Humidity
    00:00 +18°C° 0 mm 1 mps 724 mmHg 80%
    01:00 +18°C° 0 mm 1 mps 724 mmHg 82%
    02:00 +18°C° 0 mm 1 mps 724 mmHg 82%
    03:00 +16°C° 0 mm 1 mps 724 mmHg 83%
    04:00 +16°C° 0 mm 1 mps 723 mmHg 84%
    05:00 +19°C° 0 mm 1 mps 724 mmHg 79%
    06:00 +20°C° 0 mm 1 mps 724 mmHg 74%
    07:00 +22°C° 0 mm 1 mps 724 mmHg 70%
    08:00 +24°C° 0 mm 1 mps 724 mmHg 61%
    09:00 +26°C° 0 mm 2 mps 724 mmHg 52%
    10:00 +28°C° 0 mm 2 mps 724 mmHg 43%
    11:00 +29°C° 0 mm 2 mps 724 mmHg 40%
    12:00 +30°C° 0 mm 2 mps 724 mmHg 37%
    13:00 +31°C° 0 mm 2 mps 724 mmHg 34%
    14:00 +30°C° 0 mm 2 mps 724 mmHg 37%
    15:00 +29°C° 0 mm 1 mps 724 mmHg 40%
    16:00 +29°C° 0 mm 1 mps 723 mmHg 43%
    17:00 +27°C° 0 mm 1 mps 723 mmHg 51%
    18:00 +26°C° 0 mm 1 mps 723 mmHg 58%
    19:00 +24°C° 0 mm 1 mps 723 mmHg 65%
    20:00 +23°C° 0 mm 1 mps 724 mmHg 69%
    21:00 +21°C° 0 mm 1 mps 724 mmHg 73%
    22:00 +20°C° 0 mm 1 mps 724 mmHg 76%
    23:00 +19°C° 0 mm 1 mps 724 mmHg 79%

    Tomorrow, 20 July, Friday

    Time Temperature Precipitation Wind Pressure Humidity
    00:00 +19°C° 0 mm 1 mps 724 mmHg 81%
    01:00 +18°C° 0 mm 1 mps 724 mmHg 83%
    02:00 +18°C° 0 mm 1 mps 724 mmHg 85%
    03:00 +16°C° 0 mm 1 mps 724 mmHg 86%
    04:00 +16°C° 0 mm 1 mps 724 mmHg 87%
    05:00 +19°C° 0 mm 1 mps 724 mmHg 81%
    06:00 +21°C° 0 mm 1 mps 724 mmHg 75%
    07:00 +20°C° 0 mm 0 mps 724 mmHg 69%
    08:00 +25°C° 0 mm 1 mps 724 mmHg 61%
    09:00 +27°C° 0 mm 1 mps 725 mmHg 54%
    10:00 +29°C° 0 mm 1 mps 725 mmHg 46%
    11:00 +30°C° 0 mm 1 mps 724 mmHg 44%
    12:00 +31°C° 0 mm 1 mps 724 mmHg 42%
    13:00 +31°C° 0 mm 1 mps 724 mmHg 40%
    14:00 +30°C° 0.1 mm 1 mps 724 mmHg 44%
    15:00 +30°C° 0.1 mm 1 mps 723 mmHg 48%
    16:00 +29°C° 0.1 mm 1 mps 723 mmHg 52%
    17:00 +27°C° 0.3 mm 1 mps 723 mmHg 60%
    18:00 +26°C° 0.3 mm 1 mps 723 mmHg 68%
    19:00 +22°C° 0.3 mm 0 mps 723 mmHg 76%
    20:00 +21°C° 0.2 mm 0 mps 723 mmHg 79%
    21:00 +22°C° 0.2 mm 1 mps 723 mmHg 82%
    22:00 +21°C° 0.2 mm 1 mps 723 mmHg 85%
    23:00 +20°C° 0.5 mm 1 mps 722 mmHg 86%

    Day after tomorrow, 21 July, Saturday

    Time Temperature Precipitation Wind Pressure Humidity
    00:00 +19°C° 0.5 mm 1 mps 722 mmHg 88%
    01:00 +19°C° 0.5 mm 1 mps 722 mmHg 90%
    02:00 +19°C° 0.1 mm 1 mps 722 mmHg 90%
    03:00 +18°C° 0.1 mm 1 mps 722 mmHg 91%
    04:00 +18°C° 0.1 mm 1 mps 721 mmHg 91%
    05:00 +17°C° 0.1 mm 0 mps 721 mmHg 88%
    06:00 +19°C° 0.1 mm 0 mps 721 mmHg 85%
    07:00 +20°C° 0.1 mm 0 mps 721 mmHg 82%
    08:00 +21°C° 0.2 mm 0 mps 721 mmHg 77%
    09:00 +23°C° 0.2 mm 0 mps 722 mmHg 73%
    10:00 +26°C° 0.2 mm 1 mps 722 mmHg 68%
    11:00 +26°C° 1.4 mm 1 mps 721 mmHg 69%
    12:00 +27°C° 1.4 mm 1 mps 721 mmHg 71%
    13:00 +27°C° 1.4 mm 1 mps 721 mmHg 72%
    14:00 +27°C° 1.1 mm 1 mps 721 mmHg 72%
    15:00 +27°C° 1.1 mm 1 mps 721 mmHg 72%
    16:00 +26°C° 1.1 mm 1 mps 721 mmHg 72%
    17:00 +25°C° 1 mm 1 mps 721 mmHg 78%
    18:00 +24°C° 1 mm 1 mps 721 mmHg 83%
    19:00 +22°C° 1 mm 1 mps 720 mmHg 88%
    20:00 +21°C° 0.5 mm 1 mps 721 mmHg 89%
    21:00 +21°C° 0.5 mm 1 mps 721 mmHg 90%
    22:00 +20°C° 0.5 mm 1 mps 721 mmHg 91%
    23:00 +19°C° 0.3 mm 1 mps 721 mmHg 92%

    22 July, Sunday

    Time Temperature Precipitation Wind Pressure Humidity
    00:00 +19°C° 0.3 mm 1 mps 721 mmHg 92%
    01:00 +18°C° 0.3 mm 1 mps 721 mmHg 93%
    02:00 +18°C° 0.1 mm 1 mps 721 mmHg 93%
    03:00 +18°C° 0.1 mm 1 mps 720 mmHg 93%
    04:00 +18°C° 0.1 mm 1 mps 720 mmHg 93%
    05:00 +19°C° 0.3 mm 1 mps 720 mmHg 92%
    06:00 +19°C° 0.3 mm 1 mps 721 mmHg 91%
    07:00 +20°C° 0.3 mm 1 mps 721 mmHg 90%
    08:00 +21°C° 0.5 mm 1 mps 721 mmHg 86%
    09:00 +22°C° 0.5 mm 1 mps 721 mmHg 83%
    10:00 +23°C° 0.5 mm 1 mps 721 mmHg 80%
    11:00 +23°C° 0.7 mm 1 mps 721 mmHg 78%
    12:00 +24°C° 0.7 mm 1 mps 720 mmHg 76%
    13:00 +24°C° 0.7 mm 1 mps 720 mmHg 75%
    14:00 +24°C° 1 mm 1 mps 720 mmHg 77%
    15:00 +24°C° 1 mm 1 mps 720 mmHg 79%
    16:00 +23°C° 1 mm 1 mps 720 mmHg 81%
    17:00 +22°C° 0.8 mm 1 mps 720 mmHg 84%
    18:00 +21°C° 0.8 mm 1 mps 720 mmHg 87%
    19:00 +20°C° 0.8 mm 1 mps 720 mmHg 91%
    20:00 +20°C° 0.1 mm 1 mps 720 mmHg 92%
    21:00 +19°C° 0.1 mm 1 mps 720 mmHg 92%
    22:00 +17°C° 0.1 mm 2 mps 720 mmHg 93%
    23:00 +17°C° 0 mm 2 mps 720 mmHg 93%

    23 July, Monday

    Time Temperature Precipitation Wind Pressure Humidity
    00:00 +17°C° 0 mm 2 mps 720 mmHg 93%
    01:00 +17°C° 0 mm 2 mps 720 mmHg 93%
    02:00 +17°C° 0.1 mm 2 mps 721 mmHg 93%
    03:00 +17°C° 0.1 mm 2 mps 721 mmHg 93%
    04:00 +17°C° 0.1 mm 2 mps 721 mmHg 93%
    05:00 +17°C° 0.4 mm 2 mps 721 mmHg 93%
    06:00 +17°C° 0.4 mm 2 mps 722 mmHg 92%
    07:00 +17°C° 0.4 mm 2 mps 722 mmHg 92%
    08:00 +19°C° 0.1 mm 3 mps 722 mmHg 85%
    09:00 +20°C° 0.1 mm 3 mps 722 mmHg 78%
    10:00 +21°C° 0.1 mm 3 mps 722 mmHg 71%
    11:00 +24°C° 0 mm 3 mps 722 mmHg 62%
    12:00 +26°C° 0 mm 4 mps 722 mmHg 54%
    13:00 +27°C° 0 mm 4 mps 722 mmHg 45%
    14:00 +27°C° 0 mm 4 mps 722 mmHg 45%
    15:00 +27°C° 0 mm 4 mps 722 mmHg 45%
    16:00 +28°C° 0 mm 4 mps 722 mmHg 45%
    17:00 +26°C° 0 mm 3 mps 722 mmHg 54%
    18:00 +24°C° 0 mm 3 mps 722 mmHg 62%
    19:00 +23°C° 0 mm 2 mps 722 mmHg 71%
    20:00 +20°C° 0 mm 2 mps 723 mmHg 75%
    21:00 +19°C° 0 mm 2 mps 723 mmHg 80%
    22:00 +17°C° 0 mm 2 mps 723 mmHg 84%
    23:00 +17°C° 0 mm 2 mps 723 mmHg 85%

    24 July, Tuesday

    Time Temperature Precipitation Wind Pressure Humidity
    00:00 +16°C° 0 mm 2 mps 723 mmHg 86%
    01:00 +16°C° 0 mm 2 mps 723 mmHg 87%
    02:00 +16°C° 0 mm 2 mps 723 mmHg 88%
    03:00 +15°C° 0 mm 2 mps 723 mmHg 88%
    04:00 +15°C° 0 mm 2 mps 723 mmHg 89%
    05:00 +17°C° 0 mm 2 mps 723 mmHg 84%
    06:00 +18°C° 0 mm 2 mps 724 mmHg 79%
    07:00 +20°C° 0 mm 2 mps 724 mmHg 73%
    08:00 +23°C° 0 mm 2 mps 724 mmHg 65%
    09:00 +25°C° 0 mm 2 mps 724 mmHg 56%
    10:00 +28°C° 0 mm 2 mps 724 mmHg 47%
    11:00 +28°C° 0 mm 2 mps 724 mmHg 45%
    12:00 +29°C° 0 mm 2 mps 723 mmHg 43%
    13:00 +30°C° 0 mm 2 mps 723 mmHg 41%
    14:00 +29°C° 0 mm 2 mps 723 mmHg 42%
    15:00 +29°C° 0 mm 2 mps 723 mmHg 44%
    16:00 +29°C° 0 mm 2 mps 723 mmHg 46%
    17:00 +27°C° 0 mm 2 mps 723 mmHg 55%
    18:00 +26°C° 0 mm 1 mps 723 mmHg 63%
    19:00 +24°C° 0 mm 1 mps 723 mmHg 72%
    20:00 +23°C° 0 mm 1 mps 723 mmHg 75%
    21:00 +21°C° 0 mm 1 mps 723 mmHg 78%
    22:00 +20°C° 0 mm 1 mps 723 mmHg 82%
    23:00 +20°C° 0 mm 1 mps 723 mmHg 83%
    Show more